Location: Chillicothe
(39.7950°N, 93.5520°W)
Time: 20:27:10
(UTC-06:00)

Explorer 11/Cluster Stage 4 - Pass Details

Date: 21 October 2019
Orbit: 467 x 1259 km, 28.8° (Epoch: 22 November)

Event Time Altitude Azimuth Distance (km) Brightness Sun altitude
Rises 10:18:09 0° 227° (SW) 2,489 9.2 27.2°
Reaches altitude 10° 10:21:18 10° 197° (SSW) 1,607 8.7 27.6°
Maximum altitude 10:22:58 13° 169° (S) 1,458 9.1 27.9°
Drops below altitude 10° 10:24:40 10° 142° (SE) 1,645 10.0 28.1°
Sets 10:27:59 0° 112° (ESE) 2,610 10.3 28.5°
